[[{"header":{"parameterUnit":"m.s-1","parameterCategory":1,"la1":30.2991,"la2":30.254,"lo1":-89.0895,"lo2":-89.0444,"dy":0.0017,"dx":0.0017,"nx":28,"ny":28,"refTime":"2025-08-08T03:00:00:Z","depth":0,"parameterNumber":2,"parameterNumberName":"U-component_of_WINDS"},"data":[0,0,0,0,0,0,0,0,0,0,0,0,0,0,0,0,0,0,0,0,0,0,0,0,0,0,0,0,0,0,0,0,0,0,0,0,0,0,0,0,0,0,0,0,0,0,0,0,0,0,0,0,0,0,0,0,0,0,-2.9255,-2.9254,0,-2.9222,-2.9221,-2.9221,-2.9154,-2.9153,-2.9151,-2.915,-2.9117,-2.9117,-2.9118,0,0,0,0,0,0,0,0,0,0,0,0,0,-2.9261,-2.9262,-2.9255,-2.9254,-2.9254,-2.9222,-2.9221,-2.9221,-2.9154,-2.9153,-2.9151,-2.915,-2.9117,-2.9117,-2.9118,0,0,0,0,0,0,0,0,0,0,0,0,0,-2.9246,-2.9262,-2.9255,-2.9217,-2.9213,-2.9222,-2.9221,-2.9221,-2.9155,-2.9153,-2.9151,-2.9149,-2.9117,-2.9117,-2.9118,-2.9161,0,0,-2.9119,-2.912,0,0,0,0,0,0,0,0,-2.9247,-2.9246,-2.9223,-2.922,-2.9215,-2.919,-2.9211,-2.9201,-2.9155,-2.9177,-2.915,-2.9148,-2.9143,-2.9141,-2.9139,-2.9159,-2.9158,-2.9119,-2.912,-2.912,-2.912,0,0,0,0,0,0,0,-2.9248,-2.9247,-2.9242,-2.9223,-2.9218,-2.9202,-2.9197,-2.9209,-2.9172,-2.9175,-2.917,-2.9167,-2.914,-2.9139,-2.9138,-2.9158,-2.9119,-2.912,-2.912,-2.912,-2.921,-2.9212,0,0,0,0,0,0,-2.9255,-2.9249,-2.9243,-2.9241,-2.9227,-2.9203,-2.9198,-2.92,-2.9171,-2.9165,-2.9169,-2.9164,-2.9139,-2.9138,-2.9137,-2.9183,-2.912,-2.9121,-2.9121,-2.9208,-2.921,-2.9212,0,0,0,0,0,0,-2.9255,-2.9255,-2.9244,-2.9243,-2.9241,-2.9205,-2.9208,-2.9201,-2.9199,-2.9166,-2.916,-2.9174,-2.9137,-2.9136,-2.9155,-2.9181,-2.9121,-2.9121,-2.9205,-2.9208,-2.9211,-2.9279,0,0,0,0,0,0,-2.9256,-2.9256,-2.9271,-2.9244,-2.9241,-2.9263,-2.9209,-2.9201,-2.92,-2.9193,-2.917,-2.9164,-2.9136,-2.9155,-2.9156,-2.9181,-2.9122,-2.9203,-2.9207,-2.921,-2.9274,-2.9284,-2.9292,0,0,0,0,0,-2.9256,-2.9292,-2.9273,-2.9272,-2.926,-2.9265,-2.9263,-2.923,-2.9202,-2.9218,-2.9197,-2.9164,-2.9179,-2.9157,-2.9158,-2.9184,-2.9201,-2.9206,-2.921,-2.927,-2.9282,-2.9292,0,0,0,0,0,0,-2.9324,-2.9288,-2.9266,-2.9294,-2.9283,-2.9253,-2.9272,-2.9244,-2.924,-2.9234,-2.9194,-2.9189,-2.9213,-2.9201,-2.9177,-2.9223,-2.9185,-2.919,-2.923,-2.9241,-2.925,-2.9252,-2.9122,0,0,0,0,0,-2.9342,-2.9349,-2.9317,-2.9345,-2.9341,-2.9308,-2.9308,-2.9284,-2.9271,-2.9266,-2.9246,-2.9235,-2.9237,-2.9239,-2.9239,-2.9273,-2.9266,-2.9291,-2.93,-2.9308,-2.9312,-2.9327,-2.9338,-2.9228,-2.9228,-2.9227,0,0,-2.938,-2.9361,-2.9367,-2.9358,-2.9346,-2.9354,-2.9304,-2.9314,-2.9319,-2.9267,-2.9283,-2.9269,-2.9254,-2.928,-2.9291,-2.927,-2.9341,-2.9314,-2.932,-2.932,-2.9333,-2.9344,-2.9353,-2.9231,-2.923,-2.923,0,0,-2.9451,-2.9438,-2.9459,-2.9449,-2.9432,-2.941,-2.9415,-2.939,-2.9378,-2.9394,-2.9354,-2.936,-2.9365,-2.9355,-2.935,-2.9419,-2.9388,-2.942,-2.9467,-2.9483,-2.9491,-2.9499,-2.9521,-2.953,-2.9425,-2.9425,-2.9425,0,-2.9499,-2.9509,-2.9474,-2.9486,-2.9483,-2.9436,-2.9457,-2.9449,-2.9433,-2.9432,-2.941,-2.9413,-2.94,-2.9422,-2.9439,-2.9438,-2.9442,-2.9422,-2.9493,-2.95,-2.9506,-2.9527,-2.9536,-2.9429,-2.9429,-2.9428,-2.9428,0,-2.9569,-2.9576,-2.9595,-2.958,-2.9579,-2.9596,-2.9563,-2.9567,-2.9543,-2.9523,-2.9539,-2.9522,-2.9517,-2.9521,-2.9498,-2.954,-2.9528,-2.95,-2.946,-2.9521,-2.954,-2.9548,-2.9435,-2.9433,-2.9432,-2.9431,0,0,-2.968,-2.9646,-2.9653,-2.9645,-2.9623,-2.9628,-2.9643,-2.9638,-2.9641,-2.9632,-2.9642,-2.9647,-2.9621,-2.9617,-2.9592,-2.9606,-2.9659,-2.9576,-2.9575,-2.959,-2.9702,-2.9721,-2.9731,-2.964,-2.9641,-2.9642,-2.9703,0,-2.9744,-2.9766,-2.9735,-2.9764,-2.977,-2.9727,-2.9739,-2.9727,-2.971,-2.9712,-2.9692,-2.9696,-2.9662,-2.9659,-2.9671,-2.965,-2.9681,-2.9646,-2.9648,-2.9648,-2.965,-2.9741,-2.9762,-2.9819,-2.971,-2.9711,-2.9712,0,-2.9822,-2.9816,-2.9846,-2.9821,-2.9823,-2.9834,-2.9826,-2.983,-2.9815,-2.9802,-2.9796,-2.9767,-2.978,-2.9743,-2.9759,-2.9736,-2.9735,-2.9725,-2.9727,-2.9723,-2.9682,-2.9738,-2.9837,-2.9845,-2.9724,-2.9723,-2.9722,0,-2.9897,-2.9897,-2.9914,-2.991,-2.9882,-2.9891,-2.988,-2.9864,-2.9863,-2.9857,-2.9855,-2.9851,-2.9848,-2.9845,-2.9816,-2.9792,-2.9834,-2.9795,-2.9822,-2.9823,-2.9831,-2.983,-2.9928,-2.9835,-2.9835,-2.9835,-2.9834,0,-2.9971,-2.999,-2.9947,-2.9958,-2.9978,-2.9943,-2.9964,-2.9949,-2.9935,-2.9941,-2.9904,-2.9911,-2.9873,-2.9876,-2.9853,-2.9868,-2.9868,-2.9856,-2.9849,-2.9858,-2.9859,-2.9855,-2.9849,-2.9837,-2.9836,-2.9836,-2.9836,0,-3.0057,-3.003,-3.0045,-3.0018,-3.0012,-3.0028,-3.0005,-3.0013,-2.9993,-3.0002,-3.0002,-2.9971,-2.9972,-2.9943,-2.9939,-2.9924,-2.9948,-2.9936,-2.9953,-2.9948,-2.9975,-2.9972,-3.0072,-3.0082,-2.9985,-2.9986,-2.9987,0,-3.0105,-3.0119,-3.0093,-3.0095,-3.0085,-3.0089,-3.0087,-3.0053,-3.0053,-3.0038,-3.0048,-3.0046,-3.0042,-3.0046,-3.0023,-3.0019,-3.0005,-3.004,-3.0004,-3.0012,-3.0002,-3.0001,-3.0001,-3.0047,-3.0048,-3.0049,-3.005,0,-3.0192,-3.0177,-3.0176,-3.017,-3.0169,-3.0163,-3.0154,-3.0158,-3.0121,-3.0123,-3.0123,-3.0121,-3.0116,-3.0114,-3.0106,-3.0095,-3.0066,-3.0062,-3.0068,-3.0075,-3.0083,-3.0077,-2.9971,-3.0059,-3.0059,-3.0058,-3.0057,-3.0057,-3.0258,-3.0268,-3.0251,-3.0251,-3.0241,-3.0234,-3.024,-3.0221,-3.0221,-3.0214,-3.0195,-3.0198,-3.0183,-3.0169,-3.016,-3.0162,-3.0145,-3.0153,-3.0155,-3.0157,-3.0161,-3.0086,-3.0161,-3.0161,-3.0161,-3.016,-3.016,0,-3.0341,-3.0328,-3.0329,-3.0317,-3.0317,-3.0291,-3.028,-3.0282,-3.0285,-3.0274,-3.0271,-3.0271,-3.0269,-3.0247,-3.0242,-3.0248,-3.0234,-3.0247,-3.0245,-3.0243,-3.0178,-3.0173,-3.0258,-3.0258,-3.0258,-3.0258,-3.0258,-3.0258,-3.0384,-3.0398,-3.0382,-3.039,-3.0378,-3.038,-3.0376,-3.0369,-3.036,-3.0361,-3.036,-3.0345,-3.0329,-3.0322,-3.0319,-3.0312,-3.0311,-3.0328,-3.0317,-3.0257,-3.0247,-3.0238,-3.0233,-3.0329,-3.0329,-3.0381,-3.0381,-3.0382]},{"header":{"parameterUnit":"m.s-1","parameterCategory":1,"la1":30.2991,"la2":30.254,"lo1":-89.0895,"lo2":-89.0444,"dy":0.0017,"dx":0.0017,"nx":28,"ny":28,"refTime":"2025-08-08T03:00:00:Z","depth":0,"parameterNumber":3,"parameterNumberName":"V-component_of_WINDS"},"data":[0,0,0,0,0,0,0,0,0,0,0,0,0,0,0,0,0,0,0,0,0,0,0,0,0,0,0,0,0,0,0,0,0,0,0,0,0,0,0,0,0,0,0,0,0,0,0,0,0,0,0,0,0,0,0,0,0,0,0.9192,0.919,0,0.9011,0.9009,0.9007,0.8939,0.894,0.894,0.8941,0.8747,0.8741,0.8736,0,0,0,0,0,0,0,0,0,0,0,0,0,0.9473,0.9469,0.9193,0.919,0.9188,0.9011,0.9009,0.9006,0.8939,0.894,0.8941,0.8941,0.8749,0.8742,0.8735,0,0,0,0,0,0,0,0,0,0,0,0,0,0.9328,0.9467,0.9193,0.9133,0.9126,0.9012,0.9009,0.9006,0.8939,0.894,0.8941,0.8942,0.8751,0.8743,0.8734,0.8663,0,0,0.8708,0.8704,0,0,0,0,0,0,0,0,0.9336,0.9317,0.9144,0.9137,0.9129,0.8999,0.9037,0.8891,0.8939,0.901,0.8941,0.8942,0.8829,0.8814,0.8778,0.8654,0.8646,0.8707,0.8702,0.8698,0.8696,0,0,0,0,0,0,0,0.9346,0.9325,0.912,0.9142,0.9132,0.9113,0.9094,0.9009,0.8916,0.9004,0.8998,0.8978,0.8825,0.8787,0.8773,0.8643,0.8707,0.87,0.8695,0.8691,0.8452,0.8451,0,0,0,0,0,0,0.9367,0.9334,0.9126,0.9115,0.9237,0.9108,0.9086,0.904,0.8917,0.89,0.8978,0.8976,0.8801,0.8783,0.8766,0.8675,0.8698,0.869,0.8685,0.8453,0.8452,0.845,0,0,0,0,0,0,0.9374,0.9349,0.9133,0.9223,0.9194,0.9102,0.9051,0.9036,0.8997,0.8898,0.888,0.8956,0.8801,0.8778,0.869,0.8667,0.8686,0.8679,0.8454,0.8453,0.8451,0.8493,0,0,0,0,0,0,0.9382,0.9352,0.9326,0.9223,0.919,0.9063,0.9049,0.9031,0.8983,0.8979,0.8872,0.8855,0.88,0.8703,0.8682,0.8656,0.8672,0.8456,0.8454,0.8452,0.8493,0.8493,0.8492,0,0,0,0,0,0.9392,0.9343,0.9325,0.93,0.9155,0.9062,0.9042,0.8982,0.8982,0.8953,0.889,0.8859,0.8674,0.8695,0.867,0.8641,0.8457,0.8454,0.8452,0.8493,0.8493,0.8492,0,0,0,0,0,0,0.9442,0.9328,0.9307,0.9223,0.9153,0.9051,0.9013,0.8983,0.8909,0.8908,0.8833,0.881,0.8728,0.8675,0.8701,0.8566,0.8563,0.8555,0.8603,0.8602,0.8602,0.8615,0.8665,0,0,0,0,0,0.9444,0.938,0.9283,0.9218,0.9185,0.9105,0.9062,0.9022,0.8945,0.8914,0.8844,0.8768,0.8693,0.8645,0.857,0.8486,0.8461,0.8454,0.8453,0.8454,0.8447,0.8398,0.8394,0.8441,0.8441,0.8441,0,0,0.9446,0.9376,0.9339,0.9227,0.9168,0.9101,0.908,0.901,0.896,0.8902,0.8816,0.8762,0.8672,0.8586,0.8545,0.854,0.8429,0.845,0.8451,0.8444,0.8395,0.8391,0.8387,0.844,0.844,0.844,0,0,0.9416,0.9357,0.9297,0.9239,0.9151,0.9099,0.9085,0.8987,0.895,0.8862,0.8818,0.8756,0.8628,0.8566,0.8518,0.8467,0.8435,0.8444,0.8442,0.8395,0.8391,0.8388,0.8369,0.8363,0.8438,0.8438,0.8438,0,0.9428,0.9329,0.9269,0.9202,0.9154,0.9102,0.904,0.8986,0.8877,0.8843,0.8841,0.868,0.8616,0.8515,0.8503,0.8466,0.8446,0.8455,0.8397,0.8393,0.8388,0.8369,0.8363,0.844,0.844,0.844,0.8439,0,0.9349,0.928,0.9242,0.9142,0.9088,0.9024,0.8953,0.8906,0.8871,0.8819,0.873,0.8652,0.8561,0.8534,0.8498,0.8427,0.8428,0.8412,0.8407,0.8387,0.8367,0.836,0.8442,0.8442,0.8441,0.8441,0,0,0.9342,0.9212,0.9199,0.9153,0.9053,0.8997,0.8931,0.8845,0.8806,0.8732,0.8673,0.8568,0.8554,0.8499,0.8455,0.8415,0.8379,0.8404,0.8401,0.8401,0.8296,0.8307,0.83,0.8358,0.8356,0.8355,0.8303,0,0.9298,0.9179,0.9124,0.9029,0.8964,0.8915,0.8857,0.8788,0.8738,0.8674,0.8617,0.8543,0.8531,0.8497,0.8455,0.8392,0.8356,0.8395,0.83,0.8297,0.8323,0.829,0.8301,0.8256,0.8295,0.8294,0.8293,0,0.923,0.9161,0.906,0.8969,0.8939,0.8888,0.8805,0.8746,0.8666,0.8632,0.8573,0.8532,0.8458,0.846,0.8356,0.8384,0.8342,0.8305,0.8302,0.8289,0.8293,0.8275,0.8239,0.8232,0.828,0.8281,0.8282,0,0.9235,0.9116,0.904,0.9002,0.8894,0.8859,0.8812,0.8734,0.8686,0.8613,0.8581,0.85,0.8454,0.8391,0.8328,0.8336,0.823,0.8227,0.8198,0.8199,0.8176,0.8178,0.8132,0.8151,0.8152,0.8152,0.8152,0,0.9191,0.913,0.9041,0.8994,0.8925,0.8862,0.8795,0.8744,0.8675,0.8616,0.8568,0.8513,0.8435,0.8369,0.8319,0.824,0.822,0.8189,0.8176,0.8193,0.8196,0.8163,0.8164,0.815,0.815,0.8151,0.8151,0,0.9183,0.9122,0.9036,0.8942,0.8917,0.887,0.8788,0.874,0.8689,0.8614,0.8593,0.8511,0.8432,0.8364,0.8258,0.8225,0.8143,0.8128,0.8171,0.8163,0.8138,0.8141,0.8067,0.8054,0.8084,0.8084,0.8084,0,0.9159,0.9112,0.9014,0.8972,0.8927,0.886,0.8812,0.8748,0.87,0.8607,0.857,0.8488,0.8419,0.8294,0.8224,0.8143,0.8125,0.8105,0.8112,0.813,0.8123,0.8126,0.8121,0.8104,0.8104,0.8104,0.8104,0,0.9121,0.9093,0.9027,0.895,0.8895,0.8831,0.8765,0.8733,0.8657,0.8605,0.8525,0.8472,0.8366,0.8284,0.8197,0.8145,0.8111,0.8103,0.8091,0.8107,0.8133,0.8118,0.8169,0.8104,0.8104,0.8104,0.8104,0.8104,0.9103,0.9059,0.8984,0.8912,0.8857,0.8797,0.8747,0.8691,0.8624,0.8535,0.8501,0.842,0.8341,0.822,0.8169,0.8103,0.8097,0.8081,0.8077,0.8073,0.8076,0.8146,0.8086,0.8086,0.8086,0.8086,0.8086,0,0.9061,0.9012,0.8946,0.8858,0.8801,0.8778,0.8704,0.8657,0.8587,0.8519,0.8453,0.8361,0.8282,0.8207,0.8124,0.8085,0.8068,0.8066,0.8067,0.8055,0.8086,0.8103,0.8081,0.8081,0.8081,0.8081,0.8081,0.8081,0.9033,0.8958,0.8922,0.8819,0.8768,0.869,0.865,0.8594,0.8539,0.844,0.8376,0.8329,0.8256,0.8168,0.8095,0.8074,0.8045,0.8047,0.8022,0.8052,0.8053,0.8054,0.8071,0.8042,0.8042,0.7997,0.7997,0.7996]}]]